Torna al catalogo

STARLINK-6310

AttivoComunicazioniVLEO
NORAD 56533·PAYLOAD·🇺🇸 United States

Lanciato May 14, 2023 da Cape Canaveral Space Force Station

Loading…

Prossimi Passaggi (prossime 24 ore)

TLE

AggiornatoSource: CelesTrak SupGP

Epoca: Sep 14, 2026, 21:50 UTC

1 56533C 23065AG  26257.91020833  .00001909  00000+0  69189-4 0  2578
2 56533  42.9994 209.4329 0000607 233.9789 179.6715 15.27554024    16

Traccia STARLINK-6310 in tempo reale con AllMySat

Download on the App Store